Home   Weather   Koudougou   Past weeks

Flag for Burkina Faso Past Weather in Koudougou, Burkina Faso — Yesterday and Last 2 Weeks

Now
86 °F

Passing clouds.


Feels Like: 92 °F
Forecast: 72 / 95 °F
Wind: 2 mph from North

Location: Ouagadougou Airport

Current Time: Sep 27, 2016 at 10:29:41 AM

Latest Report: Sep 27, 2016 at 10:00 AM


Visibility: N/A

Pressure: 30.04 "Hg

Humidity: 62%

Dew Point: 72 °F

Location of KoudougouLocation

Past Weather in Koudougou — Graph

°F

Koudougou Temperature Yesterday

Maximum temperature yesterday: 86 °F (at 4:00 PM)
Minimum temperature yesterday: 70 °F (at 7:00 AM)
Average temperature yesterday: 78 °F

High & Low Weather Summary for the Past Weeks

 TemperatureHumidityPressure
High93 °F (Sep 12, 2:00 PM)100% (Sep 13, 7:00 AM)30.09 "Hg (Sep 13, 7:00 AM)
Low68 °F (Sep 13, 7:00 AM)49% (Sep 22, 3:00 PM)29.80 "Hg (Sep 25, 4:00 PM)
Average80 °F83%29.94 "Hg
* Reported Sep 12 9:00 AM — Sep 27 9:00 AM, Koudougou, Weather by CustomWeather, © 2016

Note: Actual official high and low records may vary slightly from our data, if they occured in-between our weather recording intervals... More about our weather records

Advertising

Koudougou Weather History for the Previous 24 Hours

Scroll right to see more
 ConditionsComfort  
Time TempWeatherWind HumidityBarometerVisibility
9:00 AM
Tue, Sep 27
86 °FPassing clouds.No wind66%30.04 "HgN/A
8:00 AM81 °FClear.No wind84%30.01 "Hg5 mi
7:00 AM77 °FClear.1 mph94%29.98 "Hg5 mi
6:00 AM73 °FSunny.1 mph100%29.98 "Hg10 mi
5:00 AM75 °FClear.1 mph94%29.95 "Hg10 mi
4:00 AM75 °FClear.3 mph100%29.95 "Hg10 mi
3:00 AM75 °FClear.2 mph100%29.95 "Hg10 mi
2:00 AM75 °FClear.No wind100%29.92 "Hg10 mi
1:00 AM75 °FClear.3 mph100%29.92 "Hg10 mi
12:00 AM75 °FClear.1 mph100%29.95 "Hg10 mi
11:00 PM
Mon, Sep 26
75 °FClear.2 mph100%29.95 "Hg10 mi
10:00 PM77 °FClear.3 mph89%29.95 "Hg10 mi
9:00 PM77 °FClear.2 mph89%29.95 "Hg10 mi
8:00 PM77 °FClear.3 mph89%29.92 "Hg10 mi
7:00 PM79 °FClear.7 mph89%29.92 "Hg10 mi
6:00 PM81 °FClear.No wind84%29.89 "Hg10 mi
5:00 PM82 °FSunny.3 mph74%29.86 "Hg10 mi
4:00 PM86 °FSunny.1 mph66%29.89 "Hg10 mi
3:00 PM84 °FPassing clouds.5 mph66%29.89 "HgN/A
2:00 PM82 °FPassing clouds.7 mph70%29.92 "HgN/A
1:00 PM81 °FPassing clouds.7 mph74%29.92 "HgN/A
12:00 PM79 °FPassing clouds.2 mph79%29.98 "HgN/A
11:00 AM77 °FPassing clouds.10 mph83%30.01 "HgN/A
10:00 AM73 °FThunderstorms. Scattered clouds.6 mph89%30.07 "Hg5 mi
Weather by CustomWeather, © 2016

See weather overviewHow to use our weather pages